Regional Weather Roundup
Issued by NWS

Home | Current Version | Previous Version | Text Only | Print | Product List | Glossary Off
Versions: 1 2 3 4 5 6 7 8 9 10 11 12 13 14 15 16 17 18 19 20 21 22 23 24 25 26 27 28 29 30 31 32 33 34 35 36 37 38 39 40 41 42 43 44 45 46 47 48 49 50

000
ASUS43 KMPX 160710
RWRMN
WEATHER ROUNDUP FOR MINNESOTA
NATIONAL WEATHER SERVICE TWIN CITIES/CHANHASSEN MN
100 AM CST TUE JAN 16 2018


NOTE: "FAIR" INDICATES FEW OR NO CLOUDS BELOW 12,000 FEET WITH NO
SIGNIFICANT WEATHER AND/OR OBSTRUCTIONS TO VISIBILITY. N/A MEANS
CURRENT SKY AND/OR WEATHER CONDITIONS ARE NOT AVAILABLE.

MNZ060>063-068>070-160800-
   Twin Cities Metro

CITY           SKY/WX    TMP DP  RH WIND       PRES   REMARKS
TWIN CITIES    MOCLDY     0  -4  83 NW13      30.59R WCI -18
ST PAUL        MOCLDY     2  -4  76 NW12      30.60R WCI -15
CRYSTAL        FAIR      -1  -9  68 NW9       30.59R WCI -16
BLAINE         FAIR       1  -4  78 NW7       30.58R WCI -11
LAKEVILLE      MOCLDY     0  -6  78 NW12      30.57S WCI -18
EDEN PRAIRIE   FAIR       0  -7  72 NW10      30.59R WCI -16
SOUTH ST PAUL  FAIR       2  -4  75 NW10      30.57S WCI -13
LAKE ELMO      FLURRIES   5   0  78 N8        30.56S WCI  -8
$$
MNZ001>005-007-008-013>017-022>024-027-028-160800-
   Northwest Minnesota

CITY           SKY/WX    TMP DP  RH WIND       PRES   REMARKS
BEMIDJI        CLOUDY    -7 -11  83 NW7       30.67R WCI -21
HALLOCK        FAIR     -15 -20  76 N6        30.83F WCI -29
ROSEAU         FAIR     -17 -22  76 W6        30.77S WCI -31
WARROAD        FAIR     -15 -20  76 W3        30.75F
THIEF RVR FALL FAIR     -17 -21  82 N9        30.77F WCI -36
CROOKSTON      FAIR     -15 -20  76 N12       30.83F WCI -36
FOSSTON        CLOUDY   -15 -18  84 NW13      30.73S WCI -37
DETROIT LAKES  CLOUDY    -9 -15  77 NW13      30.69S HAZE    WCI -30
MOORHEAD       CLOUDY   -11 -18  70 N5        30.80S WCI -23
PARK RAPIDS    CLOUDY    -3  -8  79 N9        30.64S HAZE    WCI -19
MAHNOMEN       CLOUDY   -13 -18  77 N10       30.73R WCI -32
$$
MNZ006-009>011-018-025>026-160800-
   North Central Minnesota

CITY           SKY/WX    TMP DP  RH WIND       PRES   REMARKS
BAUDETTE       CLOUDY   -12 -16  82 NW6       30.71R WCI -26
FLAG ISLAND    FAIR     -15 -20  76 CALM      30.74F
INTL FALLS     CLOUDY    -1  -5  82 NW7       30.68R WCI -14
WASKISH        CLOUDY    -6  -9  84 N5        30.70S WCI -17
BIG FORK       CLOUDY     0  -6  78 N3        30.64S
LONGVILLE      CLOUDY    -4  -8  84 N6        30.64S WCI -16
GRAND RAPIDS   FLURRIES  -1  -4  87 N13       30.64R WCI -19
CRANE LAKE     FLURRIES   0  -2  92 N3        30.67S
ORR            FLURRIES   0  -6  78 CALM      30.60S
COOK           CLOUDY     0  -2  92 N7        30.62S WCI -13
WALKER         CLOUDY    -3  -7  84 N9        30.66R WCI -19
$$
MNZ012-019>021-037-160800-
   Northeast Minnesota

CITY           SKY/WX    TMP DP  RH WIND       PRES   REMARKS
DULUTH         FAIR       2  -1  88 N9        30.54R WCI -13
ELY            CLOUDY     1   0  92 NW5       30.58S WCI  -8
HIBBING        CLOUDY     0  -3  87 N12       30.60R WCI -17
EVELETH        CLOUDY     0  -5  78 N5        30.59S WCI -10
DULUTH HARBOR  FLURRIES  10   5  79 NW9G16    30.61R WCI  -2
TWO HARBORS    FAIR       9   1  72 CALM      30.53R
SILVER BAY     FAIR       7   1  78 N6        30.52S WCI  -3
GRAND MARAIS     N/A     13   5  70 N15G33    30.54S WCI  -3
G MARAIS ARPRT FLURRIES   3   0  85 N13       30.47R WCI -14
$$
MNZ029>031-032-039>041-046>048-054>057-064-160800-
   West Central Minnesota

CITY           SKY/WX    TMP DP  RH WIND       PRES   REMARKS
FERGUS FALLS   FAIR     -13 -18  77 NW9       30.78S WCI -31
MORRIS         CLOUDY   -11 -17  77 NW15      30.70F HAZE    WCI -34
ALEXANDRIA     CLOUDY   -10 -15  78 NW10      30.64S WCI -29
ELBOW LAKE     FAIR     -13 -17  80 W13       30.71F WCI -34
WADENA         FLURRIES  -9 -15  77 W5        30.65R WCI -21
GLENWOOD       FAIR      -9 -15  77 NW9       30.65S WCI -27
APPLETON       CLOUDY    -9 -17  70 NW12      30.75S WCI -29
BENSON         CLOUDY   -11 -17  77 N14       30.71S WCI -33
ORTONVILLE     CLOUDY    -9 -17  70 NW14G21   30.74S WCI -31
MADISON        CLOUDY    -6 -13  71 NW15      30.74F WCI -27
WILLMAR        CLOUDY   -11 -17  77 NW16      30.68S WCI -34
$$
MNZ033>034-036-042>043-049>051-058-059-160800-
   Central Minnesota

CITY           SKY/WX    TMP DP  RH WIND       PRES   REMARKS
ST CLOUD       CLOUDY    -1  -5  82 N15       30.61S WCI -21
SAUK CENTRE      N/A     -9 -13  81 NW8       30.64S WCI -25
PAYNESVILLE    CLOUDY    -4  -7  86 NW8       30.64S WCI -19
AITKIN         CLOUDY     0  -6  78 N5        30.61S WCI -10
PINE RIVER     FAIR      -6  -9  84 N5        30.66S WCI -17
BRAINERD       CLOUDY    -1  -6  79 N12       30.63F WCI -18
STAPLES        CLOUDY    -6  -9  84 N7        30.65R WCI -20
LONG PRAIRIE   MOCLDY    -4  -8  84 NW9       30.63S WCI -20
LITTLE FALLS   CLOUDY     0  -9  65 N3        30.65R
LITCHFIELD     MOCLDY    -6  -9  84 NW7       30.63S WCI -20
BUFFALO        CLOUDY     0  -5  80 NW10      30.62S WCI -16
MAPLE LAKE     CLOUDY     1  -3  85 MISG      30.62R
HUTCHINSON     MOCLDY    -5 -10  79 W10       30.64R WCI -22
$$
MNZ037-044-045-052-053-160800-
   East Central Minnesota

CITY           SKY/WX    TMP DP  RH WIND       PRES   REMARKS
PRINCETON      FAIR       1  -2  85 NW8       30.59S WCI -12
MORA           FAIR       3  -2  78 N6        30.59S WCI  -8
CAMBRIDGE      FAIR       1  -6  71 NW5       30.59S WCI  -8
RUSH CITY      MOCLDY     2  -2  82 N8        30.58S WCI -11
MOOSE LAKE     FAIR       3   0  85 CALM      30.57S
HINCKLEY       FAIR       5   1  85 N10G16    30.58R WCI -10
CLOQUET        CLOUDY     3   0  85 NW16      30.55S WCI -16
MCGREGOR       CLOUDY     3   0  85 N10       30.61S WCI -12
$$
MNZ071>073-080-081-089-090-097-098-160800-
   Southwest Minnesota

CITY           SKY/WX    TMP DP  RH WIND       PRES   REMARKS
MONTEVIDEO     CLOUDY   -11 -17  77 N16       30.72F WCI -34
GRANITE FALLS  CLOUDY    -8 -13  75 NW17G23   30.73S WCI -31
CANBY          CLOUDY    -6 -11  77 NW15G21   30.74S WCI -27
MARSHALL       CLOUDY    -9 -15  75 NW18      30.70F WCI -33
REDWOOD FALLS  CLOUDY   -10 -15  78 NW13      30.68S WCI -30
OLIVIA         CLOUDY    -8 -13  77 NW14G23   30.67F WCI -28
PIPESTONE      CLOUDY    -8 -11  84 N13       30.62R HAZE    WCI -28
WINDOM         LGT SNOW  -9 -22  54 NW20G26   30.61S WCI -34
WORTHINGTON    CLEAR    -11 -15  82 N17G24    30.61S WCI -35
JACKSON        FLURRIES  -9 -15  77 NW17G25   30.60S WCI -33
SLAYTON        CLOUDY    -9 -15  76 N23       30.62F HAZE    WCI -36
$$
MNZ065>067-074>077-082>085-091>093-160800-
   South Central Minnesota

CITY           SKY/WX    TMP DP  RH WIND       PRES   REMARKS
MANKATO        FLURRIES  -6 -12  75 NW15      30.61R WCI -27
NEW ULM        LGT SNOW  -8 -15  71 NW17      30.65R WCI -31
ST JAMES       LGT SNOW  -8 -13  77 NW18      30.64S WCI -31
FAIRMONT       FLURRIES  -9 -14  78 NW20      30.61S WCI -34
GLENCOE        MOCLDY    -4  -9  77 NW12      30.62R WCI -22
FARIBAULT      CLOUDY    -2  -6  84 W8        30.57R WCI -17
OWATONNA       CLOUDY    -2  -6  84 NW15      30.55R WCI -22
WASECA         CLOUDY    -2  -8  78 NW13      30.58S WCI -21
ALBERT LEA     CLOUDY    -8 -13  77 NW12      30.53S HAZE    WCI -27
$$
MNZ078>079-086>088-094>096-160800-
   Southeast Minnesota

CITY           SKY/WX    TMP DP  RH WIND       PRES   REMARKS
ROCHESTER      CLOUDY     2  -1  88 NW21      30.47R WCI -20
RED WING       FLURRIES   5  -2  72 NW6       30.54S WCI  -6
STANTON        FLURRIES   3  -3  76 NW9       30.55S WCI -11
DODGE CENTER   FLURRIES   0  -4  85 NW14      30.49R WCI -19
WINONA         CLOUDY    10   5  79 NW13G20     N/A  WCI  -5
AUSTIN         FLURRIES  -4  -9  77 NW15      30.50S WCI -25
PRESTON        CLOUDY     2  -2  81 NW15      30.46R WCI -16
$$
ABBREVIATIONS USED IN REMARKS
   TC - TEMPERATURES IN CELSIUS
  WCI - WIND CHILL INDEX
   HX - HEAT INDEX
  VSB - VISIBILITY
$$




USA.gov is the U.S. government's official web portal to all federal, state and local government web resources and services.